Weather History for KTVR - December, 2011

Change the Weather History Date:

Saturday, December 10, 2011

  Actual Average Record
Temperature  
Mean Temperature 41 °F 49 °F  
Max Temperature 51 °F 60 °F 80 °F (2007)
Min Temperature 31 °F 38 °F 18 °F (1955)
Degree Days  
Heating Degree Days 24 16  
Month to date heating degree days 193 154  
Since 1 July heating degree days 640 556  
Cooling Degree Days 0 0  
Month to date cooling degree days 3 0  
Year to date cooling degree days 2591 2225  
Moisture  
Dew Point 34 °F    
Average Humidity 76    
Maximum Humidity 100    
Minimum Humidity 52    
Precipitation  
Precipitation 0.00 in 0.20 in 2.65 in (2012)
Month to date precipitation 1.45 2.00  
Year to date precipitation 32.85 51.13  
Sea Level Pressure  
Sea Level Pressure 30.52 in    
Wind  
Wind Speed 9 mph (North)    
Max Wind Speed 15 mph    
Max Gust Speed 18 mph    
Visibility 8 miles    
Events      
T = Trace of Precipitation, MM = Missing Value Source: NWS Daily Summary

Daily Weather History Graph

Daily Weather History Graph

Search for Another Location

Airport or City:

Trip Planner

Search our weather history database for the weather conditions in past years. The results will help you decide how hot, cold, wet, or windy it might be!

Date:

Astronomy

Dec. 10, 2011 Rise Set
Actual Time 6:54 AM CST 4:59 PM CST
Civil Twilight 6:27 AM CST 5:26 PM CST
Nautical Twilight 5:56 AM CST 5:56 PM CST
Astronomical Twilight 5:26 AM CST 6:26 PM CST
Moon 5:14 PM CST (12/10) 6:53 AM CST (12/10)
Length of Visible Light 10h 58m
Length of Day
10h 04m
Full, 100% of the Moon is Illuminated
Dec 10
Full
Dec 17
Last Quarter
Dec 24
New
Jan 1
First Quarter
Jan 9
Full

Hourly Weather History & Observations

Time (CST) Temp. Windchill Dew Point Humidity Pressure Visibility Wind Dir Wind Speed Gust Speed Precip Events Conditions
12:53 AM 30.9 °F 27.5 °F 30.0 °F 96% 30.45 in 10.0 mi North 3.5 mph - N/A   Clear
2:53 AM 37.0 °F 31.0 °F 33.1 °F 86% 30.46 in 10.0 mi North 8.1 mph - N/A   Clear
3:53 AM 37.9 °F 30.5 °F 33.1 °F 83% 30.47 in 10.0 mi NNE 11.5 mph - N/A   Clear
4:53 AM 37.0 °F 31.6 °F 33.1 °F 86% 30.49 in 10.0 mi North 6.9 mph - N/A   Clear
5:53 AM 35.1 °F 31.0 °F 33.1 °F 92% 30.52 in 10.0 mi North 4.6 mph - N/A   Clear
6:53 AM 34.0 °F 26.6 °F 33.1 °F 96% 30.54 in 7.0 mi North 9.2 mph - N/A   Clear
7:17 AM 35.6 °F 28.6 °F 33.8 °F 93% 30.52 in 4.0 mi North 9.2 mph - N/A   Partly Cloudy
7:51 AM 35.6 °F 27.5 °F 33.8 °F 93% 30.53 in 3.0 mi North 11.5 mph - N/A   Mostly Cloudy
7:53 AM 36.0 °F 27.5 °F 34.0 °F 93% 30.56 in 3.0 mi North 12.7 mph - N/A   Mostly Cloudy
8:32 AM 37.4 °F 29.8 °F 35.6 °F 93% 30.55 in 4.0 mi NNE 11.5 mph - N/A   Scattered Clouds
8:53 AM 37.9 °F 30.5 °F 35.1 °F 89% 30.58 in 5.0 mi NNE 11.5 mph - N/A   Partly Cloudy
9:53 AM 41.0 °F 34.7 °F 35.1 °F 79% 30.59 in 7.0 mi NE 10.4 mph - N/A   Scattered Clouds
10:53 AM 43.0 °F 36.8 °F 35.1 °F 74% 30.58 in 9.0 mi North 11.5 mph - N/A   Clear
11:53 AM 48.0 °F - 35.1 °F 61% 30.56 in 10.0 mi NE 11.5 mph - N/A   Clear
12:53 PM 50.0 °F - 34.0 °F 54% 30.53 in 10.0 mi NNE 9.2 mph - N/A   Clear
1:53 PM 51.1 °F - 36.0 °F 56% 30.51 in 10.0 mi North 8.1 mph - N/A   Clear
2:53 PM 50.0 °F - 36.0 °F 59% 30.49 in 10.0 mi North 12.7 mph - N/A   Clear
3:53 PM 48.0 °F - 35.1 °F 61% 30.48 in 10.0 mi North 8.1 mph - N/A   Clear
4:53 PM 44.1 °F 38.1 °F 35.1 °F 71% 30.48 in 10.0 mi North 11.5 mph - N/A   Clear
5:53 PM 41.0 °F 35.8 °F 35.1 °F 79% 30.50 in 10.0 mi North 8.1 mph - N/A   Clear
6:53 PM 39.9 °F 33.9 °F 34.0 °F 79% 30.49 in 10.0 mi NNE 9.2 mph - N/A   Clear
7:53 PM 37.0 °F 34.5 °F 33.1 °F 86% 30.53 in 10.0 mi NNW 3.5 mph - N/A   Clear
8:53 PM 36.0 °F 29.0 °F 33.1 °F 89% 30.52 in 10.0 mi North 9.2 mph - N/A   Clear
9:53 PM 39.0 °F 32.3 °F 33.1 °F 79% 30.51 in 10.0 mi NNE 10.4 mph - N/A   Clear
10:53 PM 37.0 °F 31.6 °F 30.9 °F 79% 30.52 in 10.0 mi North 6.9 mph - N/A   Clear
11:53 PM 32.0 °F 25.6 °F 28.0 °F 85% 30.51 in 10.0 mi NNE 6.9 mph - N/A   Clear